TimeCDT,TemperatureF,Dew PointF,Humidity,Sea Level PressureIn,VisibilityMPH,Wind Direction,Wind SpeedMPH,Gust SpeedMPH,PrecipitationIn,Events,Conditions,WindDirDegrees,DateUTC
12:53 AM,75.9,64.0,67,30.06,10.0,SE,5.8,-,N/A,,Mostly Cloudy,130,2013-09-11 05:53:00
1:53 AM,75.9,63.0,64,30.06,10.0,Calm,Calm,-,N/A,,Mostly Cloudy,0,2013-09-11 06:53:00
2:53 AM,72.0,64.0,76,30.06,10.0,Calm,Calm,-,N/A,,Overcast,0,2013-09-11 07:53:00
3:53 AM,75.0,64.0,69,30.07,10.0,Calm,Calm,-,N/A,,Mostly Cloudy,0,2013-09-11 08:53:00
4:53 AM,72.0,66.0,81,30.06,10.0,Calm,Calm,-,N/A,,Mostly Cloudy,0,2013-09-11 09:53:00
5:53 AM,69.1,64.0,84,30.08,10.0,ESE,5.8,-,N/A,,Scattered Clouds,110,2013-09-11 10:53:00
6:53 AM,71.1,64.0,78,30.09,10.0,ESE,3.5,-,N/A,,Mostly Cloudy,120,2013-09-11 11:53:00
7:53 AM,71.1,64.9,81,30.10,10.0,ESE,5.8,-,N/A,,Scattered Clouds,120,2013-09-11 12:53:00
8:53 AM,78.1,64.9,64,30.12,10.0,South,3.5,-,N/A,,Scattered Clouds,170,2013-09-11 13:53:00
9:53 AM,82.9,64.0,53,30.12,10.0,Variable,5.8,-,N/A,,Scattered Clouds,0,2013-09-11 14:53:00
10:53 AM,88.0,63.0,43,30.12,10.0,WSW,6.9,-,N/A,,Partly Cloudy,250,2013-09-11 15:53:00
11:53 AM,90.0,63.0,40,30.11,10.0,South,6.9,-,N/A,,Scattered Clouds,180,2013-09-11 16:53:00
12:53 PM,93.0,62.1,36,30.09,10.0,Calm,Calm,-,N/A,,Partly Cloudy,0,2013-09-11 17:53:00
1:53 PM,93.9,60.1,32,30.07,10.0,Variable,3.5,-,N/A,,Scattered Clouds,0,2013-09-11 18:53:00
2:53 PM,93.9,60.1,32,30.04,10.0,North,-9999.0,-,N/A,,Scattered Clouds,0,2013-09-11 19:53:00
3:53 PM,95.0,61.0,32,30.02,10.0,SSE,8.1,-,N/A,,Scattered Clouds,160,2013-09-11 20:53:00
4:53 PM,93.9,62.1,35,30.01,10.0,WSW,6.9,-,N/A,,Partly Cloudy,240,2013-09-11 21:53:00
5:53 PM,93.9,60.1,32,29.99,10.0,South,6.9,-,N/A,,Partly Cloudy,190,2013-09-11 22:53:00
6:53 PM,91.9,61.0,35,29.99,10.0,South,6.9,-,N/A,,Partly Cloudy,180,2013-09-11 23:53:00
7:53 PM,89.1,62.1,40,30.01,10.0,SSE,4.6,-,N/A,,Partly Cloudy,160,2013-09-12 00:53:00
8:53 PM,84.0,63.0,49,30.03,10.0,SE,5.8,-,N/A,,Partly Cloudy,140,2013-09-12 01:53:00
9:53 PM,84.0,63.0,49,30.04,10.0,South,3.5,-,N/A,,Partly Cloudy,180,2013-09-12 02:53:00
10:53 PM,81.0,64.0,56,30.04,10.0,Calm,Calm,-,N/A,,Partly Cloudy,0,2013-09-12 03:53:00
11:53 PM,75.9,66.9,74,30.03,10.0,Calm,Calm,-,N/A,,Clear,0,2013-09-12 04:53:00